owner,sensor,date,latitude,longitude,vertical_datum,wind_speed,wind_to_direction,wind_speed_of_gust,qcFlag 
TCOON,ioos:station:TCOON:003:1,2008-04-01T00:00:00Z,26.8015,-97.4706,0.0,9.0,144.0,10.7,'11111222,11111222,11111222' 
TCOON,ioos:station:TCOON:003:1,2008-04-01T02:00:00Z,26.8015,-97.4706,0.0,8.1,144.0,9.5,'11111222,11111222,11111222' 
TCOON,ioos:station:TCOON:003:1,2008-04-01T03:00:00Z,26.8015,-97.4706,0.0,7.1,146.0,8.3,'11111222,11111222,11111222' 
TCOON,ioos:station:TCOON:003:1,2008-04-01T04:00:00Z,26.8015,-97.4706,0.0,7.0,157.0,8.3,'11111222,11111222,11111222' 
TCOON,ioos:station:TCOON:003:1,2008-04-01T05:00:00Z,26.8015,-97.4706,0.0,6.1,148.0,6.8,'11111222,11111222,11111222' 
TCOON,ioos:station:TCOON:003:1,2008-04-01T06:00:00Z,26.8015,-97.4706,0.0,5.8,136.0,6.7,'11111222,11111222,11111222' 
TCOON,ioos:station:TCOON:003:1,2008-04-01T07:00:00Z,26.8015,-97.4706,0.0,6.5,137.0,7.8,'11111222,11111222,11111222' 
TCOON,ioos:station:TCOON:003:1,2008-04-01T08:00:00Z,26.8015,-97.4706,0.0,5.7,135.0,6.6,'11111222,11111222,11111222' 
TCOON,ioos:station:TCOON:003:1,2008-04-01T09:00:00Z,26.8015,-97.4706,0.0,6.2,145.0,7.2,'11111222,11111222,11111222' 
TCOON,ioos:station:TCOON:003:1,2008-04-01T10:00:00Z,26.8015,-97.4706,0.0,5.8,136.0,6.7,'11111222,11111222,11111222' 
TCOON,ioos:station:TCOON:003:1,2008-04-01T11:00:00Z,26.8015,-97.4706,0.0,6.2,136.0,7.2,'11111222,11111222,11111222' 
TCOON,ioos:station:TCOON:003:1,2008-04-01T12:00:00Z,26.8015,-97.4706,0.0,5.2,135.0,6.0,'11111222,11111222,11111222' 
TCOON,ioos:station:TCOON:003:1,2008-04-01T13:00:00Z,26.8015,-97.4706,0.0,5.5,145.0,6.3,'11111222,11111222,11111222' 
TCOON,ioos:station:TCOON:003:1,2008-04-01T14:00:00Z,26.8015,-97.4706,0.0,5.7,145.0,7.2,'11111222,11111222,11111222' 
TCOON,ioos:station:TCOON:003:1,2008-04-01T15:00:00Z,26.8015,-97.4706,0.0,5.9,131.0,6.9,'11111222,11111222,11111222' 
TCOON,ioos:station:TCOON:003:1,2008-04-01T16:00:00Z,26.8015,-97.4706,0.0,6.6,138.0,7.8,'11111222,11111222,11111222' 
TCOON,ioos:station:TCOON:003:1,2008-04-01T17:00:00Z,26.8015,-97.4706,0.0,6.2,132.0,7.3,'11111222,11111222,11111222' 
TCOON,ioos:station:TCOON:003:1,2008-04-01T18:00:00Z,26.8015,-97.4706,0.0,5.6,128.0,7.0,'11111222,11111222,11111222' 
TCOON,ioos:station:TCOON:003:1,2008-04-01T19:00:00Z,26.8015,-97.4706,0.0,5.2,122.0,6.5,'11111222,11111222,11111222' 
TCOON,ioos:station:TCOON:003:1,2008-04-01T20:00:00Z,26.8015,-97.4706,0.0,5.0,115.0,6.4,'11111222,11111222,11111222' 
TCOON,ioos:station:TCOON:003:1,2008-04-01T22:00:00Z,26.8015,-97.4706,0.0,7.5,93.0,8.7,'11111222,11111222,11111222' 
TCOON,ioos:station:TCOON:003:1,2008-04-01T23:00:00Z,26.8015,-97.4706,0.0,5.9,98.0,7.3,'11111222,11111222,11111222' 
TCOON,ioos:station:TCOON:003:1,2008-04-02T00:00:00Z,26.8015,-97.4706,0.0,6.6,121.0,7.4,'11111222,11111222,11111222' 
TCOON,ioos:station:TCOON:003:1,2008-04-02T01:00:00Z,26.8015,-97.4706,0.0,6.0,103.0,7.5,'11111222,11111222,11111222' 
TCOON,ioos:station:TCOON:003:1,2008-04-02T02:00:00Z,26.8015,-97.4706,0.0,5.9,101.0,7.0,'11111222,11111222,11111222' 
TCOON,ioos:station:TCOON:003:1,2008-04-02T03:00:00Z,26.8015,-97.4706,0.0,6.2,105.0,7.2,'11111222,11111222,11111222' 
TCOON,ioos:station:TCOON:003:1,2008-04-02T04:00:00Z,26.8015,-97.4706,0.0,5.9,107.0,7.5,'11111222,11111222,11111222' 
TCOON,ioos:station:TCOON:003:1,2008-04-02T05:00:00Z,26.8015,-97.4706,0.0,5.8,107.0,7.2,'11111222,11111222,11111222' 
TCOON,ioos:station:TCOON:003:1,2008-04-02T06:00:00Z,26.8015,-97.4706,0.0,5.2,109.0,6.7,'11111222,11111222,11111222' 
TCOON,ioos:station:TCOON:003:1,2008-04-02T07:00:00Z,26.8015,-97.4706,0.0,4.6,108.0,5.5,'11111222,11111222,11111222' 
TCOON,ioos:station:TCOON:003:1,2008-04-02T08:00:00Z,26.8015,-97.4706,0.0,3.7,106.0,4.3,'11111222,11111222,11111222' 
TCOON,ioos:station:TCOON:003:1,2008-04-02T09:00:00Z,26.8015,-97.4706,0.0,3.7,147.0,4.8,'11111222,11111222,11111222' 
TCOON,ioos:station:TCOON:003:1,2008-04-02T10:00:00Z,26.8015,-97.4706,0.0,2.4,151.0,2.9,'11111222,11111222,11111222' 
TCOON,ioos:station:TCOON:003:1,2008-04-02T11:00:00Z,26.8015,-97.4706,0.0,2.4,134.0,2.7,'11111222,11111222,11111222' 
TCOON,ioos:station:TCOON:003:1,2008-04-02T12:00:00Z,26.8015,-97.4706,0.0,2.3,113.0,2.7,'11111222,11111222,11111222' 
TCOON,ioos:station:TCOON:003:1,2008-04-02T13:00:00Z,26.8015,-97.4706,0.0,3.5,122.0,4.1,'11111222,11111222,11111222' 
TCOON,ioos:station:TCOON:003:1,2008-04-02T14:00:00Z,26.8015,-97.4706,0.0,4.3,124.0,5.3,'11111222,11111222,11111222' 
TCOON,ioos:station:TCOON:003:1,2008-04-02T15:00:00Z,26.8015,-97.4706,0.0,6.1,136.0,7.1,'11111222,11111222,11111222' 
TCOON,ioos:station:TCOON:003:1,2008-04-02T16:00:00Z,26.8015,-97.4706,0.0,8.5,145.0,9.8,'11111222,11111222,11111222' 
TCOON,ioos:station:TCOON:003:1,2008-04-02T17:00:00Z,26.8015,-97.4706,0.0,7.8,151.0,9.9,'11111222,11111222,11111222' 
TCOON,ioos:station:TCOON:003:1,2008-04-02T18:00:00Z,26.8015,-97.4706,0.0,7.9,176.0,8.9,'11111222,11111222,11111222' 
TCOON,ioos:station:TCOON:003:1,2008-04-02T19:00:00Z,26.8015,-97.4706,0.0,9.4,169.0,10.7,'11111222,11111222,11111222' 
TCOON,ioos:station:TCOON:003:1,2008-04-02T20:00:00Z,26.8015,-97.4706,0.0,8.4,148.0,10.0,'11111222,11111222,11111222' 
TCOON,ioos:station:TCOON:003:1,2008-04-02T21:00:00Z,26.8015,-97.4706,0.0,9.1,129.0,10.9,'11111222,11111222,11111222' 
TCOON,ioos:station:TCOON:003:1,2008-04-02T22:00:00Z,26.8015,-97.4706,0.0,9.4,146.0,11.5,'11111222,11111222,11111222' 
TCOON,ioos:station:TCOON:003:1,2008-04-02T23:00:00Z,26.8015,-97.4706,0.0,8.4,151.0,11.0,'11111222,11111222,11111222' 
TCOON,ioos:station:TCOON:003:1,2008-04-03T00:00:00Z,26.8015,-97.4706,0.0,8.2,150.0,10.4,'11111222,11111222,11111222' 
TCOON,ioos:station:TCOON:003:1,2008-04-03T01:00:00Z,26.8015,-97.4706,0.0,7.4,148.0,8.6,'11111222,11111222,11111222' 
TCOON,ioos:station:TCOON:003:1,2008-04-03T02:00:00Z,26.8015,-97.4706,0.0,7.0,143.0,9.4,'11111222,11111222,11111222' 
TCOON,ioos:station:TCOON:003:1,2008-04-03T03:00:00Z,26.8015,-97.4706,0.0,7.4,149.0,9.5,'11111222,11111222,11111222' 
TCOON,ioos:station:TCOON:003:1,2008-04-03T04:00:00Z,26.8015,-97.4706,0.0,8.3,148.0,9.7,'11111222,11111222,11111222' 
TCOON,ioos:station:TCOON:003:1,2008-04-03T05:00:00Z,26.8015,-97.4706,0.0,8.2,151.0,10.0,'11111222,11111222,11111222' 
TCOON,ioos:station:TCOON:003:1,2008-04-03T06:00:00Z,26.8015,-97.4706,0.0,7.9,140.0,9.5,'11111222,11111222,11111222' 
TCOON,ioos:station:TCOON:003:1,2008-04-03T07:00:00Z,26.8015,-97.4706,0.0,8.6,147.0,9.6,'11111222,11111222,11111222' 
TCOON,ioos:station:TCOON:003:1,2008-04-03T08:00:00Z,26.8015,-97.4706,0.0,7.9,145.0,9.3,'11111222,11111222,11111222' 
TCOON,ioos:station:TCOON:003:1,2008-04-03T09:00:00Z,26.8015,-97.4706,0.0,8.5,147.0,10.8,'11111222,11111222,11111222' 
TCOON,ioos:station:TCOON:003:1,2008-04-03T10:00:00Z,26.8015,-97.4706,0.0,9.2,148.0,11.4,'11111222,11111222,11111222' 
TCOON,ioos:station:TCOON:003:1,2008-04-03T11:00:00Z,26.8015,-97.4706,0.0,9.7,151.0,11.1,'11111222,11111222,11111222' 
TCOON,ioos:station:TCOON:003:1,2008-04-03T12:00:00Z,26.8015,-97.4706,0.0,8.2,159.0,9.9,'11111222,11111222,11111222' 
TCOON,ioos:station:TCOON:003:1,2008-04-03T13:00:00Z,26.8015,-97.4706,0.0,9.1,160.0,11.1,'11111222,11111222,11111222' 
TCOON,ioos:station:TCOON:003:1,2008-04-03T14:00:00Z,26.8015,-97.4706,0.0,9.4,151.0,10.5,'11111222,11111222,11111222' 
TCOON,ioos:station:TCOON:003:1,2008-04-03T15:00:00Z,26.8015,-97.4706,0.0,11.8,162.0,13.9,'11111222,11111222,11111222' 
TCOON,ioos:station:TCOON:003:1,2008-04-03T16:00:00Z,26.8015,-97.4706,0.0,12.2,168.0,14.4,'11111222,11111222,11111222' 
TCOON,ioos:station:TCOON:003:1,2008-04-03T17:00:00Z,26.8015,-97.4706,0.0,14.6,169.0,16.8,'11111222,11111222,11111222' 
TCOON,ioos:station:TCOON:003:1,2008-04-03T18:00:00Z,26.8015,-97.4706,0.0,14.2,166.0,17.7,'11111222,11111222,11111222' 
TCOON,ioos:station:TCOON:003:1,2008-04-03T19:00:00Z,26.8015,-97.4706,0.0,15.1,170.0,17.9,'11111222,11111222,11111222' 
TCOON,ioos:station:TCOON:003:1,2008-04-03T20:00:00Z,26.8015,-97.4706,0.0,14.3,170.0,16.9,'11111222,11111222,11111222' 
TCOON,ioos:station:TCOON:003:1,2008-04-03T21:00:00Z,26.8015,-97.4706,0.0,13.4,166.0,15.9,'11111222,11111222,11111222' 
TCOON,ioos:station:TCOON:003:1,2008-04-03T22:00:00Z,26.8015,-97.4706,0.0,13.8,166.0,16.5,'11111222,11111222,11111222' 
TCOON,ioos:station:TCOON:003:1,2008-04-03T23:00:00Z,26.8015,-97.4706,0.0,13.6,167.0,16.0,'11111222,11111222,11111222' 
TCOON,ioos:station:TCOON:003:1,2008-04-04T00:00:00Z,26.8015,-97.4706,0.0,10.9,171.0,12.5,'11111222,11111222,11111222' 
TCOON,ioos:station:TCOON:003:1,2008-04-04T01:00:00Z,26.8015,-97.4706,0.0,10.0,171.0,11.6,'11111222,11111222,11111222' 
TCOON,ioos:station:TCOON:003:1,2008-04-04T02:00:00Z,26.8015,-97.4706,0.0,11.2,172.0,13.2,'11111222,11111222,11111222' 
TCOON,ioos:station:TCOON:003:1,2008-04-04T03:00:00Z,26.8015,-97.4706,0.0,14.0,179.0,15.7,'11111222,11111222,11111222' 
TCOON,ioos:station:TCOON:003:1,2008-04-04T04:00:00Z,26.8015,-97.4706,0.0,12.0,182.0,14.6,'11111222,11111222,11111222' 
TCOON,ioos:station:TCOON:003:1,2008-04-04T05:00:00Z,26.8015,-97.4706,0.0,14.1,178.0,16.9,'11111222,11111222,11111222' 
TCOON,ioos:station:TCOON:003:1,2008-04-04T06:00:00Z,26.8015,-97.4706,0.0,11.4,190.0,13.5,'11111222,11111222,11111222' 
TCOON,ioos:station:TCOON:003:1,2008-04-04T07:00:00Z,26.8015,-97.4706,0.0,11.7,187.0,13.5,'11111222,11111222,11111222' 
TCOON,ioos:station:TCOON:003:1,2008-04-04T08:00:00Z,26.8015,-97.4706,0.0,10.2,183.0,12.6,'11111222,11111222,11111222' 
TCOON,ioos:station:TCOON:003:1,2008-04-04T09:00:00Z,26.8015,-97.4706,0.0,12.2,178.0,14.2,'11111222,11111222,11111222' 
TCOON,ioos:station:TCOON:003:1,2008-04-04T10:00:00Z,26.8015,-97.4706,0.0,8.9,182.0,10.0,'11111222,11111222,11111222' 
TCOON,ioos:station:TCOON:003:1,2008-04-04T11:00:00Z,26.8015,-97.4706,0.0,9.2,182.0,10.9,'11111222,11111222,11111222' 
TCOON,ioos:station:TCOON:003:1,2008-04-04T12:00:00Z,26.8015,-97.4706,0.0,7.6,197.0,8.5,'11111222,11111222,11111222' 
TCOON,ioos:station:TCOON:003:1,2008-04-04T13:00:00Z,26.8015,-97.4706,0.0,9.0,174.0,10.5,'11111222,11111222,11111222' 
TCOON,ioos:station:TCOON:003:1,2008-04-04T14:00:00Z,26.8015,-97.4706,0.0,8.2,171.0,9.1,'11111222,11111222,11111222' 
TCOON,ioos:station:TCOON:003:1,2008-04-04T15:00:00Z,26.8015,-97.4706,0.0,8.0,157.0,9.7,'11111222,11111222,11111222' 
TCOON,ioos:station:TCOON:003:1,2008-04-04T16:00:00Z,26.8015,-97.4706,0.0,7.5,157.0,8.4,'11111222,11111222,11111222' 
TCOON,ioos:station:TCOON:003:1,2008-04-04T17:00:00Z,26.8015,-97.4706,0.0,7.7,158.0,9.5,'11111222,11111222,11111222' 
TCOON,ioos:station:TCOON:003:1,2008-04-04T18:00:00Z,26.8015,-97.4706,0.0,10.4,140.0,13.3,'11111222,11111222,11111222' 
TCOON,ioos:station:TCOON:003:1,2008-04-04T19:00:00Z,26.8015,-97.4706,0.0,7.3,142.0,8.5,'11111222,11111222,11111222' 
TCOON,ioos:station:TCOON:003:1,2008-04-04T20:00:00Z,26.8015,-97.4706,0.0,5.8,140.0,6.9,'11111222,11111222,11111222' 
TCOON,ioos:station:TCOON:003:1,2008-04-04T21:00:00Z,26.8015,-97.4706,0.0,8.8,358.0,11.1,'11111222,11111222,11111222' 
TCOON,ioos:station:TCOON:003:1,2008-04-04T22:00:00Z,26.8015,-97.4706,0.0,12.7,20.0,15.8,'11111222,11111222,11111222' 
TCOON,ioos:station:TCOON:003:1,2008-04-04T23:00:00Z,26.8015,-97.4706,0.0,12.1,17.0,14.4,'11111222,11111222,11111222' 
TCOON,ioos:station:TCOON:003:1,2008-04-05T00:00:00Z,26.8015,-97.4706,0.0,10.0,29.0,12.5,'11111222,11111222,11111222' 
TCOON,ioos:station:TCOON:003:1,2008-04-05T01:00:00Z,26.8015,-97.4706,0.0,11.5,27.0,14.2,'11111222,11111222,11111222' 
TCOON,ioos:station:TCOON:003:1,2008-04-05T02:00:00Z,26.8015,-97.4706,0.0,10.4,24.0,12.8,'11111222,11111222,11111222' 
TCOON,ioos:station:TCOON:003:1,2008-04-05T03:00:00Z,26.8015,-97.4706,0.0,10.3,7.0,11.7,'11111222,11111222,11111222' 
TCOON,ioos:station:TCOON:003:1,2008-04-05T04:00:00Z,26.8015,-97.4706,0.0,9.9,8.0,11.0,'11111222,11111222,11111222' 
TCOON,ioos:station:TCOON:003:1,2008-04-05T05:00:00Z,26.8015,-97.4706,0.0,9.0,24.0,10.6,'11111222,11111222,11111222' 
TCOON,ioos:station:TCOON:003:1,2008-04-05T06:00:00Z,26.8015,-97.4706,0.0,8.6,21.0,11.1,'11111222,11111222,11111222' 
TCOON,ioos:station:TCOON:003:1,2008-04-05T07:00:00Z,26.8015,-97.4706,0.0,9.7,29.0,11.9,'11111222,11111222,11111222' 
TCOON,ioos:station:TCOON:003:1,2008-04-05T08:00:00Z,26.8015,-97.4706,0.0,7.2,21.0,8.8,'11111222,11111222,11111222' 
TCOON,ioos:station:TCOON:003:1,2008-04-05T09:00:00Z,26.8015,-97.4706,0.0,5.9,5.0,6.6,'11111222,11111222,11111222' 
TCOON,ioos:station:TCOON:003:1,2008-04-05T10:00:00Z,26.8015,-97.4706,0.0,7.2,1.0,8.4,'11111222,11111222,11111222' 
TCOON,ioos:station:TCOON:003:1,2008-04-05T11:00:00Z,26.8015,-97.4706,0.0,5.6,39.0,6.8,'11111222,11111222,11111222' 
TCOON,ioos:station:TCOON:003:1,2008-04-05T12:00:00Z,26.8015,-97.4706,0.0,6.1,350.0,7.1,'11111222,11111222,11111222' 
TCOON,ioos:station:TCOON:003:1,2008-04-05T13:00:00Z,26.8015,-97.4706,0.0,6.0,348.0,6.7,'11111222,11111222,11111222' 
TCOON,ioos:station:TCOON:003:1,2008-04-05T14:00:00Z,26.8015,-97.4706,0.0,5.3,339.0,6.3,'11111222,11111222,11111222' 
TCOON,ioos:station:TCOON:003:1,2008-04-05T15:00:00Z,26.8015,-97.4706,0.0,5.7,31.0,7.2,'11111222,11111222,11111222' 
TCOON,ioos:station:TCOON:003:1,2008-04-05T16:00:00Z,26.8015,-97.4706,0.0,5.9,39.0,7.3,'11111222,11111222,11111222' 
TCOON,ioos:station:TCOON:003:1,2008-04-05T17:00:00Z,26.8015,-97.4706,0.0,4.7,51.0,7.2,'11111222,11111222,11111222' 
TCOON,ioos:station:TCOON:003:1,2008-04-05T18:00:00Z,26.8015,-97.4706,0.0,4.5,78.0,5.3,'11111222,11111222,11111222' 
TCOON,ioos:station:TCOON:003:1,2008-04-05T19:00:00Z,26.8015,-97.4706,0.0,5.2,62.0,6.7,'11111222,11111222,11111222' 
TCOON,ioos:station:TCOON:003:1,2008-04-05T20:00:00Z,26.8015,-97.4706,0.0,6.1,80.0,7.1,'11111222,11111222,11111222' 
TCOON,ioos:station:TCOON:003:1,2008-04-05T21:00:00Z,26.8015,-97.4706,0.0,5.8,85.0,7.1,'11111222,11111222,11111222' 
TCOON,ioos:station:TCOON:003:1,2008-04-05T22:00:00Z,26.8015,-97.4706,0.0,6.0,99.0,7.6,'11111222,11111222,11111222' 
TCOON,ioos:station:TCOON:003:1,2008-04-05T23:00:00Z,26.8015,-97.4706,0.0,7.1,112.0,9.2,'11111222,11111222,11111222' 
TCOON,ioos:station:TCOON:003:1,2008-04-06T00:00:00Z,26.8015,-97.4706,0.0,6.4,107.0,7.5,'11111222,11111222,11111222' 
TCOON,ioos:station:TCOON:003:1,2008-04-06T01:00:00Z,26.8015,-97.4706,0.0,5.7,121.0,7.4,'11111222,11111222,11111222' 
TCOON,ioos:station:TCOON:003:1,2008-04-06T02:00:00Z,26.8015,-97.4706,0.0,5.8,124.0,6.7,'11111222,11111222,11111222' 
TCOON,ioos:station:TCOON:003:1,2008-04-06T03:00:00Z,26.8015,-97.4706,0.0,6.7,133.0,7.7,'11111222,11111222,11111222' 
TCOON,ioos:station:TCOON:003:1,2008-04-06T04:00:00Z,26.8015,-97.4706,0.0,6.2,131.0,7.2,'11111222,11111222,11111222' 
TCOON,ioos:station:TCOON:003:1,2008-04-06T05:00:00Z,26.8015,-97.4706,0.0,5.9,144.0,6.7,'11111222,11111222,11111222' 
TCOON,ioos:station:TCOON:003:1,2008-04-06T06:00:00Z,26.8015,-97.4706,0.0,4.7,143.0,5.5,'11111222,11111222,11111222' 
TCOON,ioos:station:TCOON:003:1,2008-04-06T07:00:00Z,26.8015,-97.4706,0.0,4.7,154.0,5.3,'11111222,11111222,11111222' 
TCOON,ioos:station:TCOON:003:1,2008-04-06T08:00:00Z,26.8015,-97.4706,0.0,3.8,155.0,4.4,'11111222,11111222,11111222' 
TCOON,ioos:station:TCOON:003:1,2008-04-06T09:00:00Z,26.8015,-97.4706,0.0,3.2,138.0,3.7,'11111222,11111222,11111222' 
TCOON,ioos:station:TCOON:003:1,2008-04-06T10:00:00Z,26.8015,-97.4706,0.0,2.3,115.0,2.6,'11111222,11111222,11111222' 
TCOON,ioos:station:TCOON:003:1,2008-04-06T11:00:00Z,26.8015,-97.4706,0.0,4.8,142.0,5.6,'11111222,11111222,11111222' 
TCOON,ioos:station:TCOON:003:1,2008-04-06T12:00:00Z,26.8015,-97.4706,0.0,2.6,119.0,3.2,'11111222,11111222,11111222' 
TCOON,ioos:station:TCOON:003:1,2008-04-06T13:00:00Z,26.8015,-97.4706,0.0,3.9,117.0,5.1,'11111222,11111222,11111222' 
TCOON,ioos:station:TCOON:003:1,2008-04-06T14:00:00Z,26.8015,-97.4706,0.0,4.2,138.0,5.0,'11111222,11111222,11111222' 
TCOON,ioos:station:TCOON:003:1,2008-04-06T15:00:00Z,26.8015,-97.4706,0.0,3.3,144.0,3.8,'11111222,11111222,11111222' 
TCOON,ioos:station:TCOON:003:1,2008-04-06T16:00:00Z,26.8015,-97.4706,0.0,3.6,128.0,4.1,'11111222,11111222,11111222' 
TCOON,ioos:station:TCOON:003:1,2008-04-06T17:00:00Z,26.8015,-97.4706,0.0,3.7,136.0,4.4,'11111222,11111222,11111222' 
TCOON,ioos:station:TCOON:003:1,2008-04-06T18:00:00Z,26.8015,-97.4706,0.0,2.8,137.0,3.5,'11111222,11111222,11111222' 
TCOON,ioos:station:TCOON:003:1,2008-04-06T19:00:00Z,26.8015,-97.4706,0.0,4.5,118.0,6.5,'11111222,11111222,11111222' 
TCOON,ioos:station:TCOON:003:1,2008-04-06T20:00:00Z,26.8015,-97.4706,0.0,6.4,131.0,7.8,'11111222,11111222,11111222' 
TCOON,ioos:station:TCOON:003:1,2008-04-06T21:00:00Z,26.8015,-97.4706,0.0,7.0,105.0,8.4,'11111222,11111222,11111222' 
TCOON,ioos:station:TCOON:003:1,2008-04-06T22:00:00Z,26.8015,-97.4706,0.0,7.6,106.0,9.1,'11111222,11111222,11111222' 
TCOON,ioos:station:TCOON:003:1,2008-04-06T23:00:00Z,26.8015,-97.4706,0.0,7.7,112.0,9.0,'11111222,11111222,11111222' 
TCOON,ioos:station:TCOON:003:1,2008-04-07T00:00:00Z,26.8015,-97.4706,0.0,7.9,116.0,9.1,'11111222,11111222,11111222' 
TCOON,ioos:station:TCOON:003:1,2008-04-07T01:00:00Z,26.8015,-97.4706,0.0,7.4,120.0,8.7,'11111222,11111222,11111222' 
TCOON,ioos:station:TCOON:003:1,2008-04-07T02:00:00Z,26.8015,-97.4706,0.0,7.2,126.0,8.2,'11111222,11111222,11111222' 
TCOON,ioos:station:TCOON:003:1,2008-04-07T03:00:00Z,26.8015,-97.4706,0.0,6.7,134.0,7.7,'11111222,11111222,11111222' 
TCOON,ioos:station:TCOON:003:1,2008-04-07T04:00:00Z,26.8015,-97.4706,0.0,6.9,147.0,8.0,'11111222,11111222,11111222' 
TCOON,ioos:station:TCOON:003:1,2008-04-07T05:00:00Z,26.8015,-97.4706,0.0,6.6,143.0,7.4,'11111222,11111222,11111222' 
TCOON,ioos:station:TCOON:003:1,2008-04-07T06:00:00Z,26.8015,-97.4706,0.0,5.4,147.0,6.5,'11111222,11111222,11111222' 
TCOON,ioos:station:TCOON:003:1,2008-04-07T07:00:00Z,26.8015,-97.4706,0.0,4.8,161.0,5.6,'11111222,11111222,11111222' 
TCOON,ioos:station:TCOON:003:1,2008-04-07T08:00:00Z,26.8015,-97.4706,0.0,3.8,153.0,4.4,'11111222,11111222,11111222' 
TCOON,ioos:station:TCOON:003:1,2008-04-07T09:00:00Z,26.8015,-97.4706,0.0,2.2,158.0,2.4,'11111222,11111222,11111222' 
TCOON,ioos:station:TCOON:003:1,2008-04-07T10:00:00Z,26.8015,-97.4706,0.0,4.9,163.0,5.5,'11111222,11111222,11111222' 
TCOON,ioos:station:TCOON:003:1,2008-04-07T11:00:00Z,26.8015,-97.4706,0.0,5.6,163.0,6.1,'11111222,11111222,11111222' 
TCOON,ioos:station:TCOON:003:1,2008-04-07T12:00:00Z,26.8015,-97.4706,0.0,4.4,152.0,5.0,'11111222,11111222,11111222' 
TCOON,ioos:station:TCOON:003:1,2008-04-07T13:00:00Z,26.8015,-97.4706,0.0,3.9,148.0,4.5,'11111222,11111222,11111222' 
TCOON,ioos:station:TCOON:003:1,2008-04-07T14:00:00Z,26.8015,-97.4706,0.0,2.9,143.0,3.4,'11111222,11111222,11111222' 
TCOON,ioos:station:TCOON:003:1,2008-04-07T15:00:00Z,26.8015,-97.4706,0.0,4.3,158.0,5.1,'11111222,11111222,11111222' 
TCOON,ioos:station:TCOON:003:1,2008-04-07T16:00:00Z,26.8015,-97.4706,0.0,3.6,136.0,4.0,'11111222,11111222,11111222' 
TCOON,ioos:station:TCOON:003:1,2008-04-07T17:00:00Z,26.8015,-97.4706,0.0,5.2,119.0,6.5,'11111222,11111222,11111222' 
TCOON,ioos:station:TCOON:003:1,2008-04-07T18:00:00Z,26.8015,-97.4706,0.0,6.0,133.0,7.3,'11111222,11111222,11111222' 
TCOON,ioos:station:TCOON:003:1,2008-04-07T19:00:00Z,26.8015,-97.4706,0.0,8.2,112.0,9.6,'11111222,11111222,11111222' 
TCOON,ioos:station:TCOON:003:1,2008-04-07T20:00:00Z,26.8015,-97.4706,0.0,9.1,112.0,11.1,'11111222,11111222,11111222' 
TCOON,ioos:station:TCOON:003:1,2008-04-07T21:00:00Z,26.8015,-97.4706,0.0,10.0,109.0,11.4,'11111222,11111222,11111222' 
TCOON,ioos:station:TCOON:003:1,2008-04-07T22:00:00Z,26.8015,-97.4706,0.0,10.2,99.0,12.2,'11111222,11111222,11111222' 
TCOON,ioos:station:TCOON:003:1,2008-04-07T23:00:00Z,26.8015,-97.4706,0.0,10.5,117.0,12.5,'11111222,11111222,11111222' 
TCOON,ioos:station:TCOON:003:1,2008-04-08T00:00:00Z,26.8015,-97.4706,0.0,9.9,123.0,11.5,'11111222,11111222,11111222' 
TCOON,ioos:station:TCOON:003:1,2008-04-08T01:00:00Z,26.8015,-97.4706,0.0,10.0,117.0,11.6,'11111222,11111222,11111222' 
TCOON,ioos:station:TCOON:003:1,2008-04-08T02:00:00Z,26.8015,-97.4706,0.0,10.3,130.0,13.1,'11111222,11111222,11111222' 
TCOON,ioos:station:TCOON:003:1,2008-04-08T03:00:00Z,26.8015,-97.4706,0.0,10.5,141.0,13.0,'11111222,11111222,11111222' 
TCOON,ioos:station:TCOON:003:1,2008-04-08T04:00:00Z,26.8015,-97.4706,0.0,9.4,146.0,10.9,'11111222,11111222,11111222' 
TCOON,ioos:station:TCOON:003:1,2008-04-08T05:00:00Z,26.8015,-97.4706,0.0,9.0,160.0,10.8,'11111222,11111222,11111222' 
TCOON,ioos:station:TCOON:003:1,2008-04-08T06:00:00Z,26.8015,-97.4706,0.0,9.0,161.0,10.0,'11111222,11111222,11111222' 
TCOON,ioos:station:TCOON:003:1,2008-04-08T07:00:00Z,26.8015,-97.4706,0.0,9.1,161.0,10.1,'11111222,11111222,11111222' 
TCOON,ioos:station:TCOON:003:1,2008-04-08T08:00:00Z,26.8015,-97.4706,0.0,9.1,173.0,10.2,'11111222,11111222,11111222' 
TCOON,ioos:station:TCOON:003:1,2008-04-08T09:00:00Z,26.8015,-97.4706,0.0,8.7,170.0,9.6,'11111222,11111222,11111222' 
TCOON,ioos:station:TCOON:003:1,2008-04-08T10:00:00Z,26.8015,-97.4706,0.0,7.7,175.0,9.0,'11111222,11111222,11111222' 
TCOON,ioos:station:TCOON:003:1,2008-04-08T11:00:00Z,26.8015,-97.4706,0.0,7.3,183.0,8.9,'11111222,11111222,11111222' 
TCOON,ioos:station:TCOON:003:1,2008-04-08T12:00:00Z,26.8015,-97.4706,0.0,5.1,188.0,6.1,'11111222,11111222,11111222' 
TCOON,ioos:station:TCOON:003:1,2008-04-08T13:00:00Z,26.8015,-97.4706,0.0,5.2,156.0,6.0,'11111222,11111222,11111222' 
TCOON,ioos:station:TCOON:003:1,2008-04-08T14:00:00Z,26.8015,-97.4706,0.0,7.8,164.0,9.4,'11111222,11111222,11111222' 
TCOON,ioos:station:TCOON:003:1,2008-04-08T15:00:00Z,26.8015,-97.4706,0.0,7.6,167.0,9.2,'11111222,11111222,11111222' 
TCOON,ioos:station:TCOON:003:1,2008-04-08T16:00:00Z,26.8015,-97.4706,0.0,8.1,157.0,9.6,'11111222,11111222,11111222' 
TCOON,ioos:station:TCOON:003:1,2008-04-08T17:00:00Z,26.8015,-97.4706,0.0,9.2,152.0,10.7,'11111222,11111222,11111222' 
TCOON,ioos:station:TCOON:003:1,2008-04-08T18:00:00Z,26.8015,-97.4706,0.0,10.2,147.0,12.4,'11111222,11111222,11111222' 
TCOON,ioos:station:TCOON:003:1,2008-04-08T19:00:00Z,26.8015,-97.4706,0.0,10.5,143.0,12.7,'11111222,11111222,11111222' 
TCOON,ioos:station:TCOON:003:1,2008-04-08T20:00:00Z,26.8015,-97.4706,0.0,11.2,140.0,13.1,'11111222,11111222,11111222' 
TCOON,ioos:station:TCOON:003:1,2008-04-08T21:00:00Z,26.8015,-97.4706,0.0,11.2,139.0,12.7,'11111222,11111222,11111222' 
TCOON,ioos:station:TCOON:003:1,2008-04-08T22:00:00Z,26.8015,-97.4706,0.0,11.0,129.0,12.9,'11111222,11111222,11111222' 
TCOON,ioos:station:TCOON:003:1,2008-04-08T23:00:00Z,26.8015,-97.4706,0.0,10.6,128.0,12.5,'11111222,11111222,11111222' 
TCOON,ioos:station:TCOON:003:1,2008-04-09T00:00:00Z,26.8015,-97.4706,0.0,10.5,126.0,13.0,'11111222,11111222,11111222' 
TCOON,ioos:station:TCOON:003:1,2008-04-09T01:00:00Z,26.8015,-97.4706,0.0,9.8,125.0,11.8,'11111222,11111222,11111222' 
TCOON,ioos:station:TCOON:003:1,2008-04-09T02:00:00Z,26.8015,-97.4706,0.0,10.1,133.0,12.1,'11111222,11111222,11111222' 
TCOON,ioos:station:TCOON:003:1,2008-04-09T03:00:00Z,26.8015,-97.4706,0.0,9.0,141.0,11.6,'11111222,11111222,11111222' 
TCOON,ioos:station:TCOON:003:1,2008-04-09T04:00:00Z,26.8015,-97.4706,0.0,11.5,139.0,13.0,'11111222,11111222,11111222' 
TCOON,ioos:station:TCOON:003:1,2008-04-09T05:00:00Z,26.8015,-97.4706,0.0,9.6,146.0,10.7,'11111222,11111222,11111222' 
TCOON,ioos:station:TCOON:003:1,2008-04-09T06:00:00Z,26.8015,-97.4706,0.0,9.1,143.0,10.8,'11111222,11111222,11111222' 
TCOON,ioos:station:TCOON:003:1,2008-04-09T07:00:00Z,26.8015,-97.4706,0.0,9.1,141.0,10.3,'11111222,11111222,11111222' 
TCOON,ioos:station:TCOON:003:1,2008-04-09T08:00:00Z,26.8015,-97.4706,0.0,8.8,139.0,10.3,'11111222,11111222,11111222' 
TCOON,ioos:station:TCOON:003:1,2008-04-09T09:00:00Z,26.8015,-97.4706,0.0,8.7,143.0,10.2,'11111222,11111222,11111222' 
TCOON,ioos:station:TCOON:003:1,2008-04-09T10:00:00Z,26.8015,-97.4706,0.0,8.5,143.0,9.8,'11111222,11111222,11111222' 
TCOON,ioos:station:TCOON:003:1,2008-04-09T11:00:00Z,26.8015,-97.4706,0.0,7.1,147.0,8.3,'11111222,11111222,11111222' 
TCOON,ioos:station:TCOON:003:1,2008-04-09T12:00:00Z,26.8015,-97.4706,0.0,5.4,139.0,6.2,'11111222,11111222,11111222' 